Orbital Elements at Epoch 2459200.5 (2020-Dec-17.0) TDB
Reference: JPL 24 (heliocentric ecliptic J2000)
Element | Value | Uncertainty (1-sigma) | Units |
e | .05372156564815214 | 3.3056e-08 | |
a | 2.216836871049896 | 9.7457e-09 | au |
q | 2.097744923550545 | 7.3183e-08 | au |
i | 6.944279217099346 | 4.3118e-06 | deg |
node | 297.6052330100118 | 3.6008e-05 | deg |
peri | 132.6428975479936 | 6.1151e-05 | deg |
M | 137.5090835582413 | 4.8247e-05 | deg |
tp | 2458740.001820105256 (2019-Sep-13.50182011) | 0.00016189 | TDB |
period | 1205.588318039316 3.30 | 7.9501e-06 2.177e-08 | d yr |
n | .2986093964359895 | 1.9691e-09 | deg/d |
Q | 2.335928818549247 | 1.0269e-08 | au |
|
| | Orbit Determination Parameters
Additional Information
|